User: anonymous   Login
Location: Spradlin Observatory
(33.4706°N, 86.3221°W)
Time: 19:38:22
(UTC-06:00)
Language:

COSMOS 2406 - Orbit

View from above orbital plane
View from above orbital plane
View from above satellite
View from above satellite

Ground track
Ground track

The orbit data is extracted from the following two-line orbital elements,

1 28352U 04021A   14356.22929726 -.00000225  00000-0 -98139-4 0  4692
2 28352 071.0006 220.0953 0013487 026.5458 112.3112 14.11377302542731
Epoch (UTC): 22 December 2014 05:30:11
Eccentricity: 0.0013487
inclination: 71.0006°
perigee height: 845 km
apogee height: 864 km
right ascension of ascending node: 220.0953°
argument of perigee: 26.5458°
revolutions per day: 14.11377302
mean anomaly at epoch: 112.3112°
orbit number at epoch: 54273

The dashed part of the orbit path shows where the satellite is in the earth's shadow,  

DLR